Pittsburg, KS

3:03 AM CDT on May 28, 2017 (GMT -0500)
Atkinson Municipal

Weather History for KPTS - October, 2011

Change the Weather History Date:

Monday, October 10, 2011

  Actual Average (KJLN) Record (KJLN)
Temperature  
Mean Temperature 64 °F -  
Max Temperature 72 °F 70 °F 92 °F (1963)
Min Temperature 56 °F 46 °F 30 °F (2000)
Degree Days  
Heating Degree Days 1    
Growing Degree Days 14 (Base 50)    
Moisture  
Dew Point 58 °F    
Average Humidity 83    
Maximum Humidity 100    
Minimum Humidity 56    
Precipitation  
Precipitation 0.00 in - - ()
Sea Level Pressure  
Sea Level Pressure 30.03 in    
Wind  
Wind Speed 5 mph (South)    
Max Wind Speed 13 mph    
Max Gust Speed -    
Visibility 9 miles    
Events      
Averages and records for this station are not official NWS values.
T = Trace of Precipitation, MM = Missing Value Source: NWS Daily Summary

Daily Weather History Graph

Daily Weather History Graph

Search for Another Location

Airport or City:

Trip Planner

Search our weather history database for the weather conditions in past years. The results will help you decide how hot, cold, wet, or windy it might be!

Date:

Astronomy

Oct. 10, 2011 Rise Set
Actual Time 7:22 AM CDT 6:49 PM CDT
Civil Twilight 6:55 AM CDT 7:15 PM CDT
Nautical Twilight 6:25 AM CDT 7:45 PM CDT
Astronomical Twilight 5:55 AM CDT 8:15 PM CDT
Moon 5:53 PM CDT (10/10) 6:04 AM CDT (10/10)
Length of Visible Light 12h 19m
Length of Day
11h 26m
Waxing Gibbous, 98% of the Moon is Illuminated
Oct 10
Waxing Gibbous
Oct 11
Full
Oct 19
Last Quarter
Oct 26
New
Nov 2
First Quarter

Hourly Weather History & Observations

Time (CDT) Temp. Dew Point Humidity Pressure Visibility Wind Dir Wind Speed Gust Speed Precip Events Conditions
12:15 AM 66.9 °F 50.9 °F 56% 30.05 in 10.0 mi SE 8.1 mph - N/A   Clear
12:35 AM 65.7 °F 50.2 °F 57% 30.05 in 10.0 mi SE 5.8 mph - N/A   Clear
12:55 AM 64.4 °F 49.1 °F 58% 30.05 in 10.0 mi SE 5.8 mph - N/A   Clear
1:15 AM 64.4 °F 49.6 °F 59% 30.05 in 10.0 mi SE 4.6 mph - N/A   Clear
1:35 AM 64.2 °F 50.0 °F 60% 30.05 in 10.0 mi SE 4.6 mph - N/A   Clear
1:55 AM 63.5 °F 49.8 °F 61% 30.05 in 10.0 mi SE 3.5 mph - N/A   Scattered Clouds
2:15 AM 62.6 °F 49.6 °F 63% 30.05 in 10.0 mi SE 3.5 mph - N/A   Scattered Clouds
2:35 AM 61.9 °F 49.6 °F 64% 30.05 in 10.0 mi SE 3.5 mph - N/A   Clear
2:55 AM 61.9 °F 50.2 °F 65% 30.05 in 10.0 mi Calm Calm - N/A   Scattered Clouds
3:35 AM 61.3 °F 50.5 °F 68% 30.05 in 10.0 mi Calm Calm - N/A   Clear
3:55 AM 61.3 °F 51.1 °F 69% 30.05 in 10.0 mi Calm Calm - N/A   Clear
4:15 AM 60.6 °F 52.3 °F 74% 30.05 in 10.0 mi West 3.5 mph - N/A   Clear
4:35 AM 60.6 °F 53.2 °F 77% 30.05 in 10.0 mi West 3.5 mph - N/A   Mostly Cloudy
4:55 AM 60.1 °F 55.0 °F 83% 30.05 in 10.0 mi Calm Calm - N/A   Overcast
5:35 AM 59.4 °F 59.5 °F 100% 30.06 in 5.0 mi Calm Calm - N/A   Overcast
5:55 AM 59.4 °F 59.5 °F 100% 30.07 in 5.0 mi Calm Calm - N/A   Overcast
6:15 AM 59.4 °F 59.5 °F 100% 30.07 in 5.0 mi Calm Calm - N/A   Overcast
6:35 AM 59.4 °F 59.5 °F 100% 30.06 in 5.0 mi East 3.5 mph - N/A   Overcast
6:55 AM 59.4 °F 59.5 °F 100% 30.07 in 3.0 mi ESE 4.6 mph - N/A   Overcast
7:15 AM 59.4 °F 59.5 °F 100% 30.06 in 7.0 mi SSE 3.5 mph - N/A   Overcast
7:35 AM 59.4 °F 59.5 °F 100% 30.06 in 7.0 mi SSE 3.5 mph - N/A   Mostly Cloudy
8:15 AM 59.4 °F 59.5 °F 100% 30.06 in 7.0 mi SE 3.5 mph - N/A   Clear
8:35 AM 59.4 °F 59.5 °F 100% 30.07 in 7.0 mi SSE 4.6 mph - N/A   Mostly Cloudy
8:55 AM 59.9 °F 60.1 °F 100% 30.07 in 10.0 mi SE 3.5 mph - N/A   Mostly Cloudy
9:15 AM 60.8 °F 60.8 °F 100% 30.07 in 10.0 mi SSE 4.6 mph - N/A   Mostly Cloudy
9:35 AM 60.8 °F 60.8 °F 100% 30.07 in 10.0 mi SSE 6.9 mph - N/A   Mostly Cloudy
9:55 AM 60.8 °F 61.0 °F 100% 30.07 in 10.0 mi South 9.2 mph - N/A   Scattered Clouds
10:35 AM 62.6 °F 62.8 °F 100% 30.07 in 10.0 mi South 9.2 mph - N/A   Overcast
10:55 AM - - N/A% 30.07 in 10.0 mi SSW 10.4 mph - N/A   Overcast
11:15 AM 64.4 °F 64.6 °F 100% 30.07 in 10.0 mi SSW 9.2 mph - N/A   Overcast
11:35 AM 66.0 °F 66.0 °F 100% 30.07 in 10.0 mi SSW 10.4 mph - N/A   Mostly Cloudy
11:55 AM 68.5 °F 67.6 °F 97% 30.06 in 10.0 mi SSW 10.4 mph - N/A   Mostly Cloudy
12:15 PM 69.4 °F 66.9 °F 92% 30.06 in 10.0 mi SSW 10.4 mph - N/A   Scattered Clouds
12:35 PM 69.4 °F 66.6 °F 91% 30.06 in 10.0 mi SW 12.7 mph - N/A   Mostly Cloudy
12:55 PM 69.4 °F 66.2 °F 89% 30.06 in 10.0 mi SSW 9.2 mph - N/A   Overcast
1:15 PM 69.4 °F 65.8 °F 88% 30.04 in 10.0 mi SW 9.2 mph - N/A   Overcast
1:35 PM 69.4 °F 63.9 °F 82% 30.03 in 10.0 mi Calm Calm - N/A   Overcast
1:55 PM 69.4 °F 59.7 °F 71% 30.03 in 10.0 mi WSW 5.8 mph - N/A   Overcast
2:15 PM 69.4 °F 59.0 °F 69% 30.02 in 10.0 mi SW 6.9 mph - N/A   Overcast
2:35 PM 69.4 °F 59.0 °F 69% 30.02 in 10.0 mi West 3.5 mph - N/A   Overcast
3:15 PM 69.4 °F 59.0 °F 69% 30.01 in 10.0 mi SW 5.8 mph - N/A   Overcast
3:55 PM 69.8 °F 57.2 °F 64% 30.00 in 10.0 mi Calm Calm - N/A   Overcast
4:15 PM 71.6 °F 58.1 °F 62% 30.00 in 10.0 mi South 4.6 mph - N/A   Mostly Cloudy
4:35 PM 71.2 °F 57.7 °F 62% 30.00 in 10.0 mi SSE 5.8 mph - N/A   Scattered Clouds
4:55 PM 70.7 °F 57.2 °F 62% 29.99 in 10.0 mi South 5.8 mph - N/A   Mostly Cloudy
5:15 PM 72.0 °F 57.7 °F 61% 29.99 in 10.0 mi SSE 4.6 mph - N/A   Mostly Cloudy
5:35 PM 72.3 °F 56.7 °F 58% 29.98 in 10.0 mi SSE 3.5 mph - N/A   Mostly Cloudy
5:55 PM 71.8 °F 56.1 °F 58% 29.98 in 10.0 mi South 9.2 mph - N/A   Mostly Cloudy
6:35 PM 69.4 °F 57.2 °F 65% 29.98 in 10.0 mi South 4.6 mph - N/A   Clear
7:15 PM 65.1 °F 58.3 °F 78% 29.98 in 10.0 mi South 5.8 mph - N/A   Clear
7:35 PM 63.9 °F 59.0 °F 84% 29.99 in 10.0 mi SSW 4.6 mph - N/A   Clear
7:55 PM 62.1 °F 60.1 °F 93% 29.99 in 10.0 mi Calm Calm - N/A   Clear
8:15 PM 61.9 °F 60.8 °F 96% 29.99 in 10.0 mi South 4.6 mph - N/A   Clear
8:35 PM 61.0 °F 61.0 °F 100% 29.99 in 10.0 mi SSE 3.5 mph - N/A   Clear
8:55 PM 59.9 °F 59.9 °F 100% 30.00 in 10.0 mi Calm Calm - N/A   Clear
9:15 PM 60.1 °F 60.3 °F 100% 29.99 in 7.0 mi Calm Calm - N/A   Clear
9:35 PM 59.4 °F 59.5 °F 100% 29.99 in 7.0 mi Calm Calm - N/A   Clear
9:55 PM 59.0 °F 59.2 °F 100% 30.00 in 5.0 mi Calm Calm - N/A   Clear
10:35 PM 57.4 °F 57.2 °F 99% 30.00 in 4.0 mi Calm Calm - N/A   Clear
10:55 PM 56.8 °F 57.2 °F 100% 30.00 in 7.0 mi Calm Calm - N/A   Clear
11:15 PM 56.8 °F - N/A% 30.00 in 3.0 mi Calm Calm - N/A   Clear
11:35 PM 57.4 °F - N/A% 30.00 in 2.5 mi Calm Calm - N/A   Clear